Miscellaneous Local Product
Issued by NWS North Platte, NE

Home | Current Version | Previous Version | Graphics & Text | Print | Product List | Glossary On
Versions: 1 2 3 4 5 6 7 8 9 10 11 12 13 14 15 16 17 18 19 20 21 22 23 24 25 26 27 28 29 30 31 32 33 34 35 36 37 38 39 40 41 42 43 44 45 46 47 48 49 50
000
AXUS43 KLBF 221210
MISLBF


WESTERN AND NORTH CENTRAL NEBRASKA HOURLY WEATHER ROUNDUP
NATIONAL WEATHER SERVICE NORTH PLATTE NE
700 AM CDT MON SEP 22 2014

***STATIONS NOT REPORTING VARIABLES SUCH AS SKY/WEATHER OR
PRESSURE ARE PROVIDED BY THE NEBRASKA DEPARTMENT OF
ROADS...RAWS...AND APRS NETWORKS...AND ARE NOT UNDER
NATIONAL WEATHER SERVICE QUALITY CONTROL***

...OBSERVATIONS IN AND NEAR THE EASTERN PANHANDLE OF NEBRASKA...

CITY           SKY/WX    TMP DP  RH WIND       PRES   REMARKS
PINE RIDGE     PTCLDY    61  40  45 S20G29    30.15F
CHADRON        MOCLDY    60  41  49 S20G28    30.12S
ALLIANCE       MOCLDY    54  41  61 SE12      30.19F
SIDNEY         PTCLDY    58  41  53 S18       30.22F
WHITECLAY        N/A     60  39  46 S15         N/A
RUSHVILLE        N/A     57  37  47 S16         N/A
CRESCENT LAKE    N/A     55  41  59 SE9         N/A
LISCO            N/A     59  41  51 E12         N/A
BIG SPRINGS      N/A     53  45  74 CALM        N/A
$$

...OBSERVATIONS IN NORTH CENTRAL NEBRASKA...

CITY           SKY/WX    TMP DP  RH WIND       PRES   REMARKS
VALENTINE      CLEAR     48  42  80 S8        30.23F
THEDFORD       PTCLDY    52  44  74 S7        30.27F
AINSWORTH      CLEAR     48  43  81 S7        30.26S
O`NEILL        CLEAR     46  43  91 S6        30.28F
ORD            CLEAR     40  38  93 CALM      30.29S
BROKEN BOW     CLEAR     42  40  92 CALM      30.29F
SPRINGVIEW       N/A     39  38  95 CALM        N/A
ROSE             N/A     48  46  93 E7          N/A
NEWPORT          N/A     44  43  94 S6          N/A
COMSTOCK         N/A     51  46  84 S6          N/A
CHAMBERS         N/A     47  43  85 S3          N/A
$$

...OBSERVATIONS IN SOUTHWEST NEBRASKA AND FAR NORTHEAST COLORADO...

CITY           SKY/WX    TMP DP  RH WIND       PRES   REMARKS
WRAY           FAIR      57  41  55 E5        30.26F
HOLYOKE        FAIR      61  43  51 S8        30.24F
IMPERIAL       MOCLDY    57  41  55 SE7       30.26F
OGALLALA       PTCLDY    53  46  76 E3        30.25S
NORTH PLATTE   PTCLDY    48  43  82 E7        30.27F
MCCOOK         PTCLDY    52  44  74 E5        30.29F
LEXINGTON      MOCLDY    51  47  86 SE5       30.30F
PAXTON           N/A     52  45  76 CALM        N/A
SUTHERLAND       N/A     49  39  67 S8          N/A
BRADY            N/A     49  43  80 CALM        N/A
GOTHENBURG       N/A     50  43  77 E3          N/A
CALLAWAY         N/A     46  44  94 SE7         N/A
$$

...SOME WEATHER OBSERVATIONS FROM AROUND THE REGION...

CITY           SKY/WX    TMP DP  RH WIND       PRES   REMARKS
DENVER         CLOUDY    61  48  62 S18       30.19F
LARAMIE        MOCLDY    48  45  89 SE10      30.25F
CHEYENNE       CLOUDY    52  41  66 S9        30.22F
SCOTTSBLUFF    MOCLDY    61  42  49 S14       30.16F
RAPID CITY     MOCLDY    48  39  71 SE6       30.13F
PIERRE         CLEAR     47  41  80 SE8       30.18F
WINNER         FAIR      53  43  68 S14       30.22F
SIOUX FALLS    CLEAR     44  42  93 CALM      30.28R
OMAHA          PTCLDY    49  47  93 CALM      30.32R
GRAND ISLAND   CLEAR     47  42  83 SW3       30.32R
KANSAS CITY    CLEAR     48  47  96 N5        30.31R
WICHITA        CLEAR     56  46  69 CALM      30.31R
HAYS           PTCLDY    54  43  66 E3        30.32R
LIBERAL        CLEAR     55  41  58 E5        30.33R
GOODLAND       PTCLDY    50  42  74 S13       30.30F
$$



USA.gov is the U.S. government's official web portal to all federal, state and local government web resources and services.